Penn Yan, NY

3:32 AM EST on December 11, 2016 (GMT -0500)
Penn Yan

Weather History for KPEO - April, 2014

Change the Weather History Date:

Friday, April 11, 2014

  Actual Average (KITH) Record (KITH)
Temperature  
Mean Temperature 50 °F -  
Max Temperature 57 °F 48 °F 78 °F (1945)
Min Temperature 41 °F 28 °F 18 °F (1970)
Degree Days  
Heating Degree Days 16    
Moisture  
Dew Point 41 °F    
Average Humidity 71    
Maximum Humidity 93    
Minimum Humidity 53    
Precipitation  
Precipitation 0.01 in - - ()
Sea Level Pressure  
Sea Level Pressure 29.99 in    
Wind  
Wind Speed 6 mph (WSW)    
Max Wind Speed 10 mph    
Max Gust Speed -    
Visibility 10 miles    
Events Rain    
Averages and records for this station are not official NWS values.
T = Trace of Precipitation, MM = Missing Value Source: NWS Daily Summary

Daily Weather History Graph

Daily Weather History Graph

Search for Another Location

Airport or City:

Trip Planner

Search our weather history database for the weather conditions in past years. The results will help you decide how hot, cold, wet, or windy it might be!

Date:

Astronomy

Apr. 11, 2014 Rise Set
Actual Time 6:33 AM EDT 7:45 PM EDT
Civil Twilight 6:04 AM EDT 8:14 PM EDT
Nautical Twilight 5:29 AM EDT 8:49 PM EDT
Astronomical Twilight 4:53 AM EDT 9:26 PM EDT
Moon 4:19 PM EDT 4:32 AM EDT
Length of Visible Light 14h 10m
Length of Day
13h 12m
Waxing Gibbous, 87% of the Moon is Illuminated
Apr 11
Waxing Gibbous
Apr 15
Full
Apr 22
Last Quarter
Apr 29
New
May 6
First Quarter

Hourly Weather History & Observations

Time (EDT) Temp. Windchill Dew Point Humidity Pressure Visibility Wind Dir Wind Speed Gust Speed Precip Events Conditions
12:53 AM 57.0 °F - 46.0 °F 67% 29.86 in 10.0 mi West 9.2 mph - N/A   Overcast
1:53 AM 54.0 °F - 48.9 °F 83% 29.89 in 9.0 mi West 4.6 mph - 0.01 in Rain Light Rain
2:53 AM 53.1 °F - 48.9 °F 86% 29.89 in 10.0 mi SW 6.9 mph - 0.00 in   Overcast
3:39 AM 52.0 °F - 48.9 °F 89% 29.91 in 10.0 mi NW 4.6 mph - 0.00 in Rain Light Rain
3:53 AM 52.0 °F - 48.0 °F 86% 29.92 in 10.0 mi WNW 8.1 mph - 0.00 in   Overcast
4:53 AM 51.1 °F - 41.0 °F 68% 29.93 in 10.0 mi WNW 3.5 mph - N/A   Overcast
5:53 AM 50.0 °F - 41.0 °F 71% 29.96 in 10.0 mi Calm Calm - N/A   Overcast
6:53 AM 50.0 °F - 41.0 °F 71% 29.99 in 10.0 mi WSW 3.5 mph - N/A   Overcast
7:53 AM 50.0 °F - 42.1 °F 74% 30.02 in 10.0 mi NW 3.5 mph - N/A   Clear
8:53 AM 52.0 °F - 39.9 °F 63% 30.03 in 10.0 mi Calm Calm - N/A   Clear
9:53 AM 54.0 °F - 39.0 °F 57% 30.02 in 10.0 mi NW 4.6 mph - N/A   Clear
10:53 AM 55.0 °F - 37.9 °F 53% 30.03 in 10.0 mi Calm Calm - N/A   Scattered Clouds
11:53 AM 55.9 °F - 39.0 °F 53% 30.03 in 10.0 mi Variable 3.5 mph - N/A   Overcast
12:53 PM 55.0 °F - 41.0 °F 59% 30.02 in 10.0 mi ENE 5.8 mph - N/A   Overcast
1:53 PM 54.0 °F - 39.9 °F 59% 30.00 in 10.0 mi SSE 10.4 mph - 0.00 in Rain Light Rain
2:53 PM 54.0 °F - 37.0 °F 53% 30.00 in 10.0 mi SSW 5.8 mph - 0.00 in   Overcast
3:53 PM 50.0 °F - 39.9 °F 68% 30.00 in 10.0 mi SSW 10.4 mph - 0.00 in Rain Light Rain
4:53 PM 52.0 °F - 39.9 °F 63% 30.01 in 10.0 mi South 9.2 mph - 0.00 in   Overcast
5:53 PM 53.1 °F - 39.0 °F 59% 30.01 in 10.0 mi SSW 8.1 mph - N/A   Partly Cloudy
6:53 PM 51.1 °F - 39.9 °F 66% 30.01 in 10.0 mi SSW 5.8 mph - N/A   Clear
7:53 PM 46.0 °F - 39.0 °F 76% 30.03 in 10.0 mi Calm Calm - N/A   Clear
8:53 PM 46.9 °F - 39.9 °F 77% 30.04 in 10.0 mi SSW 6.9 mph - N/A   Clear
9:53 PM 43.0 °F 38.8 °F 39.0 °F 86% 30.06 in 10.0 mi SW 6.9 mph - N/A   Clear
10:53 PM 42.1 °F 39.2 °F 39.9 °F 92% 30.06 in 10.0 mi WSW 4.6 mph - N/A   Clear
11:53 PM 41.0 °F 39.0 °F 39.0 °F 93% 30.06 in 10.0 mi SW 3.5 mph - N/A   Clear